Tracking 23114 objects as of 16-May-2021
HD Live streaming from Space Station
objects crossing your sky now

STARLINK-2438

Track STARLINK-2438 now!
10-day predictions
STARLINK-2438 is classified as:


NORAD ID: 48103
Int'l Code: 2021-027M
Perigee: 355.4 km
Apogee: 358.3 km
Inclination: 53.0 °
Period: 91.5 minutes
Semi major axis: 6727 km
RCS: Unknown
Launch date: April 7, 2021
Source: United States (US)
Launch site: AIR FORCE EASTERN TEST RANGE (AFETR)
aabbcc
Your satellite tracking list
Your tracking list is empty




NASA's NSSDC Master Catalog

Two Line Element Set (TLE):
1 48103U 21027M   21136.58334491 -.00000844  00000-0 -15801-5 0  9996
2 48103  53.0460 147.0635 0002106  25.3382 143.6650 15.73213059  1826
Source of the keplerian elements: AFSPC